Location: *
(48.8667°N, 2.3331°E)
Time: 18:24:36
(UTC+00:00)

Cosmos 1703 - Pass Details

Date: 09 April 2020
Orbit: 524 x 541 km, 82.5° (Epoch: 01 June)

Event Time Altitude Azimuth Distance (km) Brightness Sun altitude
Rises 18:58:41 0° 353° (N) 2,708 7.2 -4.7°
Reaches altitude 10° 19:00:53 10° 357° (N) 1,813 6.3 -5.1°
Maximum altitude 19:04:49 59° 78° (ENE) 633 3.4 -5.7°
Drops below altitude 10° 19:08:44 10° 158° (SSE) 1,802 5.6 -6.3°
Sets 19:10:55 0° 162° (SSE) 2,689 6.5 -6.6°
